Location: Newark
(34.1333°N, 7.9667°W)
Time: 09:06:22
(UTC+00:00)

COSMOS 2251 DEB - Pass Details

Date: 24 February 2024
Orbit: 726 x 941 km, 73.7° (Epoch: 12 April)

Event Time Altitude Azimuth Distance (km) Brightness Sun altitude
Rises 05:55:57 0° 198° (SSW) 3,589 ? -15.5°
Reaches altitude 10° 05:58:29 10° 199° (SSW) 2,647 ? -15.0°
Maximum altitude 06:04:38 83° 287° (WNW) 941 ? -13.7°
Drops below altitude 10° 06:10:40 10° 16° (NNE) 2,590 ? -12.5°
Sets 06:13:07 0° 17° (NNE) 3,507 ? -12.0°
